Flag for U.S.A. Weather past 2 weeks in Warminster Township, Pennsylvania, U.S.A.

Now
59 °F

Partly sunny.


Feels Like: 58 °F
Forecast: 40 / 61 °F
Wind: 6 mph from Northwest

Location: Doylestown Airport

Current Time: Apr 26, 2015 at 4:13:09 PM

Latest Report: Apr 26, 2015 at 3:54 PM


Visibility: 10 mi

Pressure: 29.66 "Hg

Humidity: 31%

Dew point: 28 °F

Location of Warminster TownshipLocation

Historic Weather in Warminster Township — Graph

°F

Warminster Township temperature yesterday

Maximum temperature yesterday: 56 °F (at 4:54 PM)
Minimum temperature yesterday: 31 °F (at 2:54 AM)
Average temperature yesterday: 44 °F

Past Weeks' High & Low Weather Summary

 TemperatureHumidityPressure
High78 °F (Apr 18, 4:54 PM)100% (Apr 17, 6:54 AM)30.45 "Hg (Apr 17, 6:54 AM)
Low31 °F (Apr 25, 2:54 AM)14% (Apr 15, 5:54 PM)29.54 "Hg (Apr 20, 10:54 PM)
Average53 °F53%29.99 "Hg
* Reported Apr 11 2:54 PM — Apr 26 2:54 PM, Warminster Township, Weather by CustomWeather, © 2015

Note: Actual official high and low records may vary slightly from our data, if they occured in-between our weather recording intervals... More about our weather records

Advertising

Warminster Township weather history for previous 24 hours

 ConditionsComfort  
Time TempWeatherWind HumidityBarometerVisibility
2:54 PM
Sun, Apr 26
57 °FPartly sunny.No wind32%29.67 "Hg10 mi
1:54 PM59 °FPassing clouds.5 mph32%29.68 "Hg10 mi
12:54 PM57 °FPartly sunny.No wind37%29.69 "Hg10 mi
11:54 AM56 °FPassing clouds.5 mph36%29.70 "Hg10 mi
10:54 AM54 °FSunny.3 mph41%29.71 "Hg10 mi
9:54 AM52 °FSunny.6 mph43%29.70 "Hg10 mi
8:54 AM48 °FSunny.8 mph48%29.70 "Hg10 mi
7:54 AM44 °FSunny.8 mph55%29.70 "Hg10 mi
6:54 AM40 °FClear.6 mph63%29.69 "Hg10 mi
5:54 AM40 °FClear.5 mph60%29.68 "Hg10 mi
4:54 AM40 °FClear.7 mph60%29.67 "Hg10 mi
3:54 AM40 °FClear.3 mph58%29.67 "Hg10 mi
2:54 AM41 °FClear.3 mph55%29.67 "Hg10 mi
1:54 AM42 °FClear.3 mph55%29.68 "Hg10 mi
12:54 AM43 °FClear.No wind51%29.69 "Hg10 mi
11:54 PM
Sat, Apr 25
46 °FClear.No wind46%29.71 "Hg10 mi
10:54 PM47 °FClear.3 mph44%29.70 "Hg10 mi
9:54 PM49 °FClear.3 mph41%29.71 "Hg10 mi
8:54 PM49 °FClear.3 mph39%29.71 "Hg10 mi
7:54 PM52 °FSunny.5 mph32%29.71 "Hg10 mi
6:54 PM54 °FSunny.7 mph27%29.71 "Hg10 mi
5:54 PM56 °FSunny.5 mph27%29.72 "Hg10 mi
4:54 PM56 °FSunny.N/A28%29.73 "Hg10 mi
Weather by CustomWeather, © 2015

See weather overviewHow to use our weather pages